Regional Weather Roundup
Issued by NWS Newport/Morehead, NC

Current Version | Previous Version | Text Only | Print | Product List | Glossary On
Versions: 1 2 3 4 5 6 7 8 9 10 11 12 13 14 15 16 17 18 19 20 21 22 23 24 25 26 27 28 29 30 31 32 33 34 35 36 37 38 39 40 41 42 43 44 45 46 47 48 49 50
000
ASUS42 KMHX 252213
RWRMHX
WEATHER ROUNDUP FOR EASTERN NORTH CAROLINA
NATIONAL WEATHER SERVICE NEWPORT/MOREHEAD CITY NC
600 PM EDT MON JUL 25 2016

NOTE: "FAIR" INDICATES FEW OR NO CLOUDS BELOW 12,000 FEET
WITH NO SIGNIFICANT WEATHER AND/OR OBSTRUCTIONS TO VISIBILITY

NCZ015>017-031-032-045>047-102-103-252300-
NORTH COAST

CITY           SKY/WX    TMP DP  RH WIND       PRES   REMARKS
EDENTON        MOSUNNY   94  71  47 SW10      29.94F HX 101
ELIZABETH CITY MOSUNNY   93  73  52 S12       29.93F HX 102
KITTY HAWK     CLEAR     91  75  57 S8G16     29.94F HX 102
MANTEO           N/A     90  78  68 SW20      29.95F HX 103

$$

NCZ045>047-081-094-103-104-252300-
CENTRAL COAST

CITY           SKY/WX    TMP DP  RH WIND       PRES   REMARKS
FRISCO         SUNNY     84  77  79 SW12      30.00S

$$

NCZ095-097-098-100-101-252300-
SOUTHERN COAST

CITY           SKY/WX    TMP DP  RH WIND       PRES   REMARKS
BEAUFORT       SUNNY     86  77  74 SW22      30.00F
CEDAR ISLAND   NOT AVBL
JACKSONVILLE   SUNNY     89  71  55 S12       29.99S
PINEY ISLAND   NOT AVBL
WILMINGTON     SUNNY     89  71  55 S14G20    30.00S


$$

NCZ011>013-027>030-043-044-078>080-089-090>093-098-252300-
COASTAL PLAIN

CITY           SKY/WX    TMP DP  RH WIND       PRES   REMARKS
AHOSKIE        SUNNY     91  77  63 S3        29.93F HX 103
CLINTON        SUNNY     93  75  56 SW5       29.97F HX 104
ELIZABETHTOWN  SUNNY     93  76  58 S13       29.98F HX 105
GOLDSBORO      MOSUNNY   95  71  46 S9        29.95S HX 102
GREENVILLE     SUNNY     95  75  52 SW6       29.97F HX 107
HAVELOCK       MOSUNNY   88  73  61 S15       30.00S
KENANSVILLE    NOT AVBL
KINSTON        SUNNY     95  72  46 SW10      29.97S HX 103
NEW BERN       SUNNY     90  74  59 S13G20    29.99S
RICHLANDS      SUNNY     91  76  61 S17       29.98S HX 103
ROCKY MOUNT    SUNNY     92  76  59 S10       29.94F HX 104
WASHINGTON     NOT AVBL
WHITEVILLE     SUNNY     90  75  62 S8        29.99S HX 100

$$

AMZ130-135-150-152-154-156-158-170-250-252-270-ANZ085-086-088-633-658-670-252300-
MARINE OBSERVATIONS

STATION/POSITION TIME  TEMP    WIND        PRES    WAVE   SWELL
                       AIR SEA DIR/SP/G            HT/PER HT/PER
                 (UTC) (F)     (DEG/KT/KT) (MB)    (FT/S) (FT/S)
CHESAPEAKE LIGHT NOT AVBL
64 E VA BEACH    2150   83 82  200/ 17/ 19 1013.7    3/ 4   2/ 8
DUCK             2100   91 69  200/ 12/ 17 1013.5
2 E DUCK         2111      74                N/A     1/ 8
OREGON INLET     2100   86 84  190/ 19/ 23 1015.1
13E OREGON INLT  2100      83                N/A     3/ 4   2/ 9
HATTERAS CG      2100   86 83  210/ 10/ 15 1015.4
DIAMOND BUOY     2150   85 86  220/ 17/ 21 1015.7    4/ 5   2/ 9
CAPE LOOKOUT     2200   85     200/ 15/ 18 1015.6
BEAUFORT LAB     2100   86 83  210/ 14/ 19 1015.4
30 SE NEW RVR IN 2108   85 85  220/ 16/ 19 1016.5
30 SE NEW RVR IN 2125      85                N/A     3/ 4
27 SE WRIGHTSVLE 2108   85 85  210/ 14/ 16 1016.9
5 SE WRIGHTSVLE  2108   85 84  220/ 14/ 17 1017.3
225 S CAPE HAT   2150   84 85  170/ 10/ 12 1018.2    2/ 8   2/ 8
41 SE CHARLESTON 2150   85 87  180/ 10/ 14 1016.6    2/ 8   2/ 8

$$



USA.gov is the U.S. government's official web portal to all federal, state and local government web resources and services.